TimeEST,TemperatureF,Dew PointF,Humidity,Sea Level PressureIn,VisibilityMPH,Wind Direction,Wind SpeedMPH,Gust SpeedMPH,PrecipitationIn,Events,Conditions,WindDirDegrees,DateUTC
12:53 AM,35.1,17.1,48,30.00,10.0,South,3.5,-,N/A,,Overcast,180,2002-01-06 05:53:00
1:53 AM,37.0,16.0,42,29.97,10.0,Calm,Calm,-,N/A,,Overcast,0,2002-01-06 06:53:00
2:53 AM,34.0,21.0,59,29.96,10.0,Calm,Calm,-,N/A,,Overcast,0,2002-01-06 07:53:00
3:53 AM,36.0,17.1,46,29.96,10.0,SSW,3.5,-,N/A,,Overcast,200,2002-01-06 08:53:00
4:53 AM,37.9,15.1,39,29.92,10.0,South,3.5,-,N/A,,Scattered Clouds,180,2002-01-06 09:53:00
5:53 AM,37.0,18.0,46,29.90,10.0,Calm,Calm,-,N/A,,Overcast,0,2002-01-06 10:53:00
6:53 AM,37.0,28.9,73,29.91,5.0,SSW,8.1,20.7,0.00,Snow,Light Snow,200,2002-01-06 11:53:00
7:10 AM,35.6,33.8,93,29.88,4.0,SW,8.1,-,0.00,Snow,Light Snow,230,2002-01-06 12:10:00
7:53 AM,33.1,33.1,100,29.89,6.0,Calm,Calm,-,0.00,Snow,Light Snow,0,2002-01-06 12:53:00
8:46 AM,33.8,-9999,N/A,29.87,2.5,SE,3.5,-,0.01,Snow,Light Snow,130,2002-01-06 13:46:00
8:53 AM,33.1,-9999,N/A,29.91,0.8,Calm,Calm,-,0.01,Snow,Light Snow,0,2002-01-06 13:53:00
9:07 AM,33.8,-9999,N/A,29.87,0.5,Calm,Calm,-,0.00,Snow,Snow,0,2002-01-06 14:07:00
9:35 AM,33.8,-9999,N/A,29.85,1.0,East,3.5,-,0.01,Snow,Light Snow,90,2002-01-06 14:35:00
9:41 AM,33.8,-9999,N/A,29.84,0.8,East,3.5,-,0.01,Snow,Light Snow,80,2002-01-06 14:41:00
9:53 AM,33.1,-9999,N/A,29.88,7.0,Calm,Calm,-,0.03,,Overcast,0,2002-01-06 14:53:00
10:05 AM,33.8,-9999,N/A,29.83,1.8,Calm,Calm,-,0.00,Snow,Light Snow,0,2002-01-06 15:05:00
10:17 AM,33.8,-9999,N/A,29.80,0.8,North,3.5,-,0.00,Snow,Light Snow,10,2002-01-06 15:17:00
10:27 AM,33.8,-9999,N/A,29.80,0.5,Calm,Calm,-,0.00,Snow,Light Snow,0,2002-01-06 15:27:00
10:36 AM,32.0,-9999,N/A,29.79,0.5,NE,3.5,-,0.00,Snow,Light Snow,40,2002-01-06 15:36:00
10:44 AM,32.0,-9999,N/A,29.78,4.0,Calm,Calm,-,0.00,Snow,Light Snow,0,2002-01-06 15:44:00
10:53 AM,33.1,-9999,N/A,29.80,3.0,NNE,3.5,-,0.00,Snow,Light Snow,30,2002-01-06 15:53:00
11:16 AM,33.8,-9999,N/A,29.73,1.5,NNE,3.5,-,0.01,Snow,Light Snow,30,2002-01-06 16:16:00
11:53 AM,32.0,-9999,N/A,29.69,1.0,NNE,6.9,-,0.02,Snow,Light Snow,20,2002-01-06 16:53:00
12:16 PM,32.0,-9999,N/A,29.65,0.5,NNE,5.8,-,0.00,Snow,Snow,20,2002-01-06 17:16:00
12:53 PM,32.0,-9999,N/A,29.65,0.5,NNE,5.8,-,0.00,Snow,Snow,30,2002-01-06 17:53:00
1:00 PM,32.0,-9999,N/A,29.62,0.2,NNE,3.5,-,0.00,Snow,Heavy Snow,20,2002-01-06 18:00:00
1:53 PM,32.0,-9999,N/A,29.59,0.5,NNE,5.8,-,0.01,Snow,Snow,20,2002-01-06 18:53:00
2:53 PM,32.0,-9999,N/A,29.57,0.5,North,3.5,-,0.01,Snow,Snow,10,2002-01-06 19:53:00
3:00 PM,32.0,-9999,N/A,29.54,0.2,NNE,3.5,-,0.00,Snow,Heavy Snow,20,2002-01-06 20:00:00
3:07 PM,32.0,-9999,N/A,29.54,0.5,NNE,3.5,-,0.01,Snow,Snow,20,2002-01-06 20:07:00
3:44 PM,33.8,32.0,93,29.54,0.2,Calm,Calm,-,0.03,Fog-Snow,Snow,0,2002-01-06 20:44:00
3:53 PM,32.0,32.0,100,29.56,0.5,North,4.6,-,0.03,Fog-Snow,Snow,360,2002-01-06 20:53:00
4:06 PM,32.0,32.0,100,29.54,0.2,Calm,Calm,-,0.00,Fog-Snow,Light Snow,0,2002-01-06 21:06:00
4:17 PM,32.0,32.0,100,29.54,0.5,Calm,Calm,-,0.00,Fog-Snow,Light Snow,0,2002-01-06 21:17:00
4:44 PM,32.0,32.0,100,29.55,1.0,Calm,Calm,-,0.00,Snow,Light Snow,0,2002-01-06 21:44:00
4:53 PM,32.0,32.0,100,29.58,1.2,Calm,Calm,-,0.01,Snow,Light Snow,0,2002-01-06 21:53:00
5:13 PM,32.0,30.2,93,29.55,0.8,Calm,Calm,-,0.00,Snow,Light Snow,0,2002-01-06 22:13:00
5:23 PM,32.0,32.0,100,29.56,1.5,Calm,Calm,-,0.00,Snow,Light Snow,0,2002-01-06 22:23:00
5:33 PM,32.0,30.2,93,29.56,2.0,Calm,Calm,-,0.01,Snow,Light Snow,0,2002-01-06 22:33:00
5:53 PM,32.0,32.0,100,29.58,3.0,Calm,Calm,-,0.02,,Overcast,0,2002-01-06 22:53:00
6:11 PM,32.0,32.0,100,29.56,1.8,Calm,Calm,-,0.00,Snow,Light Snow,0,2002-01-06 23:11:00
6:53 PM,32.0,32.0,100,29.60,2.0,Calm,Calm,-,0.02,Snow,Light Snow,0,2002-01-06 23:53:00
7:53 PM,32.0,30.9,96,29.61,2.5,Variable,3.5,-,0.02,Snow,Light Snow,0,2002-01-07 00:53:00
8:14 PM,32.0,30.2,93,29.58,4.0,WNW,3.5,-,0.01,Snow,Light Snow,290,2002-01-07 01:14:00
8:22 PM,32.0,30.2,93,29.59,5.0,Calm,Calm,-,0.01,,Overcast,0,2002-01-07 01:22:00
8:37 PM,32.0,30.2,93,29.58,6.0,NW,3.5,-,0.01,,Overcast,310,2002-01-07 01:37:00
8:53 PM,32.0,30.9,96,29.62,6.0,NW,4.6,-,0.02,Snow,Light Snow,310,2002-01-07 01:53:00
9:53 PM,32.0,30.9,96,29.63,5.0,Variable,3.5,-,0.01,Snow,Light Snow,0,2002-01-07 02:53:00
10:53 PM,32.0,30.9,96,29.64,4.0,WNW,4.6,-,0.01,Snow,Light Snow,300,2002-01-07 03:53:00
11:27 PM,32.0,30.2,93,29.61,2.5,Calm,Calm,-,0.00,Snow,Light Snow,0,2002-01-07 04:27:00
11:53 PM,32.0,30.9,96,29.64,2.5,Calm,Calm,-,0.01,Snow,Light Snow,0,2002-01-07 04:53:00